Location: Unspecified
(52.4292°N, 19.3359°E)
Time: 16:23:06
(UTC+01:00)

A-11 Canister half - Pass Details

Date: 15 October 2025
Orbit: 1526 x 1682 km, 47.3° (Epoch: 13 November)

Event Time Altitude Azimuth Distance (km) Brightness Sun altitude
Exits shadow 03:19:52 37° 158° (SSE) 2,215 9.6 -34.1°
Maximum altitude 03:20:44 38° 146° (SE) 2,192 9.7 -33.9°
Drops below altitude 10° 03:29:00 10° 83° (E) 3,702 11.7 -32.9°
Sets 03:32:18 0° 76° (ENE) 4,695 12.5 -32.5°
